| time (UTC) | temp C | wind direction | speed KPH | gust KPH | rain 1hr cm | rain 24hr cm | rain mn cm | humidity % | barometer mb |
| 20260904051522 | 15 | 227 | 0.0 | 0.0 | 0.00 | 0.00 | 0.03 | 87 | 1003.9 |
| 20260904050022 | 15 | 227 | 0.0 | 0.0 | 0.00 | 0.00 | 0.00 | 87 | 1003.9 |
| 20260904044531 | 15 | 225 | 0.0 | 0.0 | 0.00 | 0.00 | 0.00 | 86 | 1004.0 |
| 20260904043034 | 15 | 245 | 0.0 | 0.0 | 0.00 | 0.00 | 0.00 | 86 | 1004.0 |
| 20260904041520 | 15 | 222 | 0.0 | 0.0 | 0.00 | 0.00 | 0.00 | 86 | 1003.9 |
| 20260904040019 | 15 | 227 | 1.6 | 0.0 | 0.00 | 0.00 | 0.00 | 86 | 1003.7 |
| 20260904034517 | 15 | 244 | 0.0 | 0.0 | 0.00 | 0.00 | 0.00 | 86 | 1004.1 |
| 20260904033027 | 15 | 250 | 1.6 | 0.0 | 0.00 | 0.00 | 0.00 | 86 | 1004.4 |
| 20260904031515 | 15 | 309 | 0.0 | 0.0 | 0.00 | 0.00 | 0.00 | 86 | 1004.4 |
| 20260904030014 | 15 | 255 | 0.0 | 0.0 | 0.00 | 0.00 | 0.00 | 87 | 1004.7 |
| 20260904024514 | 15 | 219 | 1.6 | 0.0 | 0.00 | 0.00 | 0.00 | 87 | 1004.4 |
| 20260904023011 | 15 | 223 | 0.0 | 0.0 | 0.00 | 0.00 | 0.00 | 87 | 1004.7 |
| 20260904021510 | 15 | 257 | 0.0 | 0.0 | 0.00 | 0.00 | 0.00 | 88 | 1004.7 |
| 20260904020009 | 15 | 234 | 1.6 | 0.0 | 0.00 | 0.00 | 0.00 | 88 | 1005.0 |
| 20260904014512 | 15 | 288 | 1.6 | 0.0 | 0.00 | 0.00 | 0.00 | 88 | 1005.1 |
| 20260904013007 | 15 | 245 | 1.6 | 0.0 | 0.00 | 0.00 | 0.00 | 89 | 1005.1 |
| 20260904011507 | 15 | 230 | 0.0 | 0.0 | 0.00 | 0.00 | 0.00 | 89 | 1005.1 |
| 20260904010011 | 15 | 233 | 1.6 | 0.0 | 0.00 | 0.00 | 0.00 | 89 | 1005.2 |
| 20260904004504 | 15 | 236 | 1.6 | 0.0 | 0.00 | 0.00 | 0.00 | 89 | 1005.3 |
| 20260904003003 | 15 | 226 | 1.6 | 0.0 | 0.00 | 0.00 | 0.00 | 89 | 1005.4 |
| 20260904001505 | 15 | 215 | 0.0 | 0.0 | 0.00 | 0.00 | 0.00 | 89 | 1005.6 |
| 20260904000003 | 15 | 216 | 1.6 | 0.0 | 0.00 | 0.00 | 0.00 | 88 | 1005.4 |
| 20260903234559 | 16 | 296 | 1.6 | 0.0 | 0.00 | 0.00 | 0.00 | 89 | 1005.5 |
| 20260903233058 | 16 | 213 | 1.6 | 0.0 | 0.00 | 0.00 | 0.00 | 89 | 1005.7 |
| 20260903231602 | 16 | 245 | 0.0 | 0.0 | 0.00 | 0.00 | 0.00 | 89 | 1005.6 |
| 20260903230057 | 16 | 230 | 0.0 | 0.0 | 0.00 | 0.00 | 0.00 | 89 | 1005.6 |
| 20260903224601 | 16 | 286 | 1.6 | 0.0 | 0.00 | 0.00 | 0.00 | 89 | 1005.7 |
| 20260903223055 | 16 | 238 | 1.6 | 0.0 | 0.00 | 0.00 | 0.00 | 89 | 1005.9 |
| 20260903221555 | 16 | 250 | 1.6 | 0.0 | 0.00 | 0.00 | 0.00 | 89 | 1006.0 |
| 20260903220053 | 16 | 206 | 0.0 | 0.0 | 0.00 | 0.00 | 0.00 | 89 | 1005.8 |
| 20260903214603 | 16 | 236 | 1.6 | 0.0 | 0.00 | 0.00 | 0.08 | 88 | 1005.7 |
| 20260903213052 | 16 | 238 | 1.6 | 0.0 | 0.00 | 0.00 | 0.05 | 88 | 1005.8 |
| 20260903211554 | 16 | 257 | 1.6 | 0.0 | 0.00 | 0.00 | 0.05 | 89 | 1005.8 |
| 20260903210107 | 16 | 267 | 1.6 | 0.0 | 0.00 | 0.00 | 0.05 | 88 | 1005.8 |
| 20260903204601 | 16 | 287 | 0.0 | 0.0 | 0.00 | 0.00 | 0.05 | 89 | 1005.8 |
| 20260903203051 | 16 | 240 | 0.0 | 0.0 | 0.00 | 0.00 | 0.05 | 89 | 1006.0 |
| 20260903201549 | 16 | 286 | 0.0 | 0.0 | 0.00 | 0.00 | 0.05 | 89 | 1005.7 |
| 20260903200104 | 16 | 260 | 0.0 | 0.0 | 0.00 | 0.00 | 0.05 | 89 | 1005.8 |
| 20260903194548 | 16 | 217 | 1.6 | 0.0 | 0.00 | 0.00 | 0.05 | 89 | 1005.8 |
| 20260903193047 | 17 | 228 | 1.6 | 0.0 | 0.00 | 0.00 | 0.05 | 89 | 1005.6 |
| 20260903191559 | 17 | 248 | 1.6 | 0.0 | 0.00 | 0.00 | 0.05 | 89 | 1005.6 |
| 20260903190046 | 17 | 279 | 0.0 | 0.0 | 0.00 | 0.00 | 0.05 | 89 | 1005.5 |
| 20260903184549 | 17 | 203 | 0.0 | 0.0 | 0.00 | 0.00 | 0.05 | 88 | 1005.5 |
| 20260903183051 | 17 | 176 | 1.6 | 0.0 | 0.00 | 0.00 | 0.05 | 88 | 1005.4 |
| 20260903181545 | 17 | 233 | 1.6 | 0.0 | 0.00 | 0.00 | 0.05 | 89 | 1005.1 |
| 20260903180046 | 17 | 257 | 3.2 | 0.0 | 0.00 | 0.00 | 0.05 | 89 | 1005.0 |
| 20260903174545 | 18 | 226 | 3.2 | 0.0 | 0.00 | 0.00 | 0.05 | 89 | 1004.7 |
| 20260903173045 | 18 | 234 | 3.2 | 0.0 | 0.00 | 0.00 | 0.05 | 89 | 1004.7 |
| 20260903171601 | 18 | 296 | 3.2 | 0.0 | 0.00 | 0.00 | 0.05 | 88 | 1004.7 |
| 20260903170050 | 18 | 221 | 3.2 | 0.0 | 0.00 | 0.00 | 0.05 | 88 | 1004.6 |
| 20260903164543 | 18 | 243 | 4.8 | 0.0 | 0.00 | 0.00 | 0.05 | 88 | 1004.3 |
| 20260903163043 | 18 | 253 | 3.2 | 0.0 | 0.00 | 0.00 | 0.05 | 89 | 1004.4 |
| 20260903161541 | 19 | 215 | 3.2 | 0.0 | 0.00 | 0.00 | 0.05 | 90 | 1004.3 |
| 20260903160041 | 20 | 219 | 3.2 | 0.0 | 0.00 | 0.00 | 0.05 | 91 | 1004.7 |
| 20260903154540 | 20 | 227 | 1.6 | 0.0 | 0.00 | 0.00 | 0.05 | 93 | 1004.6 |
| 20260903153036 | 19 | 225 | 3.2 | 0.0 | 0.00 | 0.00 | 0.05 | 94 | 1004.8 |
| 20260903151538 | 18 | 223 | 1.6 | 0.0 | 0.00 | 0.00 | 0.05 | 94 | 1004.7 |
| 20260903150043 | 18 | 219 | 8.0 | 0.0 | 0.00 | 0.00 | 0.05 | 94 | 1004.6 |
| 20260903144529 | 18 | 232 | 4.8 | 0.0 | 0.00 | 0.00 | 0.05 | 95 | 1004.7 |
| 20260903143034 | 17 | 223 | 0.0 | 0.0 | 0.00 | 0.00 | 0.05 | 94 | 1004.9 |
| 20260903141524 | 17 | 223 | 1.6 | 0.0 | 0.00 | 0.00 | 0.05 | 94 | 1004.9 |
| 20260903140024 | 17 | 233 | 1.6 | 0.0 | 0.00 | 0.00 | 0.05 | 94 | 1005.2 |
| 20260903134524 | 17 | 232 | 0.0 | 0.0 | 0.00 | 0.00 | 0.05 | 94 | 1005.4 |
| 20260903133020 | 17 | 232 | 1.6 | 0.0 | 0.00 | 0.00 | 0.05 | 94 | 1005.6 |
| 20260903131519 | 17 | 225 | 0.0 | 0.0 | 0.00 | 0.00 | 0.05 | 94 | 1005.6 |
| 20260903130021 | 17 | 225 | 3.2 | 0.0 | 0.00 | 0.00 | 0.05 | 94 | 1005.8 |
| 20260903124515 | 17 | 231 | 1.6 | 0.0 | 0.00 | 0.00 | 0.05 | 94 | 1005.7 |
| 20260903123012 | 16 | 227 | 1.6 | 0.0 | 0.00 | 0.00 | 0.05 | 94 | 1006.1 |
| 20260903121511 | 16 | 235 | 1.6 | 0.0 | 0.00 | 0.00 | 0.05 | 94 | 1006.2 |
| 20260903120009 | 16 | 224 | 0.0 | 0.0 | 0.00 | 0.00 | 0.05 | 94 | 1006.3 |
| 20260903114508 | 16 | 188 | 0.0 | 0.0 | 0.00 | 0.00 | 0.05 | 94 | 1006.4 |
| 20260903113005 | 16 | 175 | 0.0 | 0.0 | 0.00 | 0.00 | 0.05 | 94 | 1006.6 |
| 20260903111503 | 16 | 169 | 0.0 | 0.0 | 0.00 | 0.00 | 0.05 | 94 | 1006.7 |
| 20260903110001 | 16 | 142 | 0.0 | 0.0 | 0.00 | 0.00 | 0.05 | 94 | 1007.0 |
| 20260903104600 | 16 | 169 | 0.0 | 0.0 | 0.00 | 0.00 | 0.05 | 93 | 1007.2 |
| 20260903103058 | 16 | 169 | 0.0 | 0.0 | 0.00 | 0.00 | 0.05 | 93 | 1007.4 |
| 20260903101602 | 16 | 168 | 0.0 | 0.0 | 0.00 | 0.00 | 0.03 | 93 | 1007.5 |
| 20260903100055 | 16 | 168 | 1.6 | 0.0 | 0.00 | 0.00 | 0.03 | 94 | 1007.9 |
| 20260903094639 | 16 | 231 | 0.0 | 0.0 | 0.00 | 0.00 | 0.03 | 94 | 1008.1 |
| 20260903093052 | 16 | 227 | 0.0 | 0.0 | 0.00 | 0.00 | 0.03 | 94 | 1008.3 |
| 20260903091549 | 15 | 227 | 0.0 | 0.0 | 0.00 | 0.00 | 0.03 | 93 | 1008.5 |
| 20260903090049 | 15 | 227 | 0.0 | 0.0 | 0.00 | 0.00 | 0.03 | 93 | 1008.8 |
| 20260903084546 | 15 | 227 | 0.0 | 0.0 | 0.00 | 0.00 | 0.03 | 93 | 1008.9 |
| 20260903083045 | 15 | 225 | 0.0 | 0.0 | 0.00 | 0.00 | 0.03 | 93 | 1009.0 |
| 20260903081544 | 15 | 223 | 0.0 | 0.0 | 0.00 | 0.00 | 0.03 | 94 | 1009.1 |
| 20260903080055 | 15 | 222 | 0.0 | 0.0 | 0.00 | 0.00 | 0.03 | 93 | 1009.2 |
| 20260903074541 | 15 | 226 | 1.6 | 0.0 | 0.00 | 0.00 | 0.03 | 93 | 1009.4 |
| 20260903073043 | 16 | 233 | 0.0 | 0.0 | 0.00 | 0.00 | 0.03 | 93 | 1009.6 |
| 20260903071538 | 16 | 233 | 0.0 | 0.0 | 0.00 | 0.00 | 0.03 | 93 | 1009.7 |
| 20260903070036 | 16 | 234 | 1.6 | 0.0 | 0.00 | 0.00 | 0.03 | 93 | 1009.8 |
| 20260903064536 | 16 | 218 | 0.0 | 0.0 | 0.00 | 0.00 | 0.03 | 93 | 1010.0 |
| 20260903063034 | 16 | 227 | 0.0 | 0.0 | 0.00 | 0.00 | 0.03 | 94 | 1010.0 |
| 20260903061532 | 16 | 228 | 1.6 | 0.0 | 0.00 | 0.00 | 0.03 | 93 | 1010.2 |
| 20260903060030 | 15 | 234 | 1.6 | 0.0 | 0.00 | 0.00 | 0.03 | 94 | 1010.2 |
| 20260903054527 | 15 | 227 | 1.6 | 0.0 | 0.00 | 0.00 | 0.03 | 94 | 1010.4 |
| 20260903053024 | 15 | 227 | 0.0 | 0.0 | 0.00 | 0.00 | 0.03 | 93 | 1010.6 |